TimePST,TemperatureF,Dew PointF,Humidity,Sea Level PressureIn,VisibilityMPH,Wind Direction,Wind SpeedMPH,Gust SpeedMPH,PrecipitationIn,Events,Conditions,WindDirDegrees,DateUTC
12:02 AM,32.0,30.2,93,29.73,2.5,SSE,5.8,-,0.00,Snow,Light Snow,150,2013-02-19 08:02:00
12:07 AM,32.0,30.2,93,29.73,0.8,SSE,4.6,-,0.00,Snow,Light Snow,160,2013-02-19 08:07:00
12:11 AM,32.0,30.2,93,29.73,0.8,SSE,3.5,-,0.01,Snow,Light Snow,160,2013-02-19 08:11:00
12:24 AM,32.0,30.2,93,29.72,0.5,West,4.6,-,N/A,Fog-Snow,Snow,260,2013-02-19 08:24:00
12:30 AM,32.0,30.2,93,29.72,1.0,WSW,4.6,-,0.05,Snow,Light Snow,240,2013-02-19 08:30:00
12:42 AM,32.0,30.2,93,29.72,3.0,WSW,11.5,-,0.06,Snow,Light Snow,240,2013-02-19 08:42:00
12:55 AM,30.9,30.0,96,29.70,2.0,West,6.9,-,0.06,Snow,Light Snow,260,2013-02-19 08:55:00
1:05 AM,30.2,30.2,100,29.71,6.0,West,6.9,-,N/A,Snow,Light Snow,260,2013-02-19 09:05:00
1:28 AM,30.2,28.4,93,29.70,10.0,WSW,9.2,-,0.00,,Overcast,250,2013-02-19 09:28:00
1:38 AM,30.2,28.4,93,29.70,10.0,West,8.1,-,0.00,,Overcast,260,2013-02-19 09:38:00
1:55 AM,30.9,30.0,96,29.68,7.0,WSW,3.5,-,0.00,Snow,Light Snow,250,2013-02-19 09:55:00
2:23 AM,30.2,28.4,93,29.68,2.5,WSW,3.5,-,0.00,Snow,Light Snow,240,2013-02-19 10:23:00
2:31 AM,30.2,28.4,93,29.68,1.5,West,4.6,-,0.00,Snow,Light Snow,260,2013-02-19 10:31:00
2:34 AM,30.2,28.4,93,29.68,2.0,West,3.5,-,0.00,Snow,Light Snow,280,2013-02-19 10:34:00
2:43 AM,28.4,28.4,100,29.68,8.0,Calm,Calm,-,0.00,,Overcast,0,2013-02-19 10:43:00
2:46 AM,28.4,28.4,100,29.67,9.0,Calm,Calm,-,0.00,,Overcast,0,2013-02-19 10:46:00
2:52 AM,28.4,28.4,100,29.67,10.0,Calm,Calm,-,0.00,,Overcast,0,2013-02-19 10:52:00
2:55 AM,30.0,28.0,92,29.68,10.0,Calm,Calm,-,0.00,,Overcast,0,2013-02-19 10:55:00
3:05 AM,30.2,28.4,93,29.66,10.0,Calm,Calm,-,N/A,,Overcast,0,2013-02-19 11:05:00
3:20 AM,30.2,28.4,93,29.66,1.5,Variable,5.8,-,0.00,Snow,Light Snow,0,2013-02-19 11:20:00
3:25 AM,30.2,28.4,93,29.66,0.8,WSW,8.1,-,0.01,Snow,Light Snow,250,2013-02-19 11:25:00
3:31 AM,30.2,28.4,93,29.66,1.0,WSW,4.6,-,0.02,Snow,Light Snow,250,2013-02-19 11:31:00
3:45 AM,30.2,28.4,93,29.65,3.0,South,3.5,-,0.03,Snow,Light Snow,190,2013-02-19 11:45:00
3:55 AM,30.0,28.9,96,29.66,9.0,SE,8.1,-,0.03,,Overcast,140,2013-02-19 11:55:00
4:12 AM,30.2,28.4,93,29.65,10.0,Variable,3.5,-,N/A,,Overcast,0,2013-02-19 12:12:00
4:35 AM,30.2,26.6,86,29.65,10.0,Calm,Calm,-,N/A,,Overcast,0,2013-02-19 12:35:00
4:55 AM,30.0,27.0,88,29.67,10.0,Calm,Calm,-,N/A,,Overcast,0,2013-02-19 12:55:00
5:53 AM,30.2,24.8,80,29.64,10.0,South,5.8,-,N/A,,Mostly Cloudy,190,2013-02-19 13:53:00
5:55 AM,28.9,24.1,82,29.65,10.0,Calm,Calm,-,N/A,,Mostly Cloudy,0,2013-02-19 13:55:00
6:55 AM,26.1,21.9,84,29.65,10.0,East,4.6,-,N/A,,Mostly Cloudy,100,2013-02-19 14:55:00
7:55 AM,25.0,21.9,88,29.65,10.0,Calm,Calm,-,N/A,,Clear,0,2013-02-19 15:55:00
8:55 AM,28.0,24.1,85,29.64,10.0,South,3.5,-,N/A,,Partly Cloudy,180,2013-02-19 16:55:00
9:55 AM,30.9,25.0,79,29.63,10.0,South,9.2,-,N/A,,Overcast,180,2013-02-19 17:55:00
10:55 AM,33.1,25.0,72,29.63,10.0,Variable,6.9,-,N/A,,Overcast,0,2013-02-19 18:55:00
11:55 AM,33.1,26.1,75,29.63,10.0,SE,4.6,-,N/A,,Overcast,140,2013-02-19 19:55:00
12:55 PM,33.1,27.0,78,29.62,10.0,SSE,4.6,-,N/A,,Mostly Cloudy,150,2013-02-19 20:55:00
1:55 PM,33.1,27.0,78,29.61,10.0,NW,3.5,-,0.00,,Overcast,310,2013-02-19 21:55:00
2:33 PM,30.2,28.4,93,29.59,3.0,WNW,5.8,-,0.00,Snow,Light Snow,300,2013-02-19 22:33:00
2:46 PM,30.2,28.4,93,29.59,1.8,West,9.2,-,0.00,Snow,Light Snow,270,2013-02-19 22:46:00
2:55 PM,30.9,28.9,92,29.63,1.0,West,6.9,-,0.00,Snow,Light Snow,280,2013-02-19 22:55:00
3:04 PM,30.2,28.4,93,29.59,3.0,WNW,6.9,-,0.00,Snow,Light Snow,290,2013-02-19 23:04:00
3:30 PM,30.2,28.4,93,29.60,10.0,NW,3.5,-,0.00,,Scattered Clouds,310,2013-02-19 23:30:00
4:55 PM,30.9,27.0,85,29.65,10.0,WNW,9.2,-,N/A,,Overcast,300,2013-02-20 00:55:00
5:55 PM,28.9,26.1,89,29.70,10.0,West,5.8,-,N/A,,Overcast,270,2013-02-20 01:55:00
6:55 PM,28.9,25.0,85,29.72,10.0,Calm,Calm,-,N/A,,Overcast,0,2013-02-20 02:55:00
7:55 PM,27.0,25.0,92,29.75,10.0,Calm,Calm,-,N/A,,Overcast,0,2013-02-20 03:55:00
8:55 PM,27.0,23.0,85,29.75,10.0,Calm,Calm,-,N/A,,Scattered Clouds,0,2013-02-20 04:55:00
10:55 PM,26.1,21.0,81,29.81,10.0,Calm,Calm,-,N/A,,Clear,0,2013-02-20 06:55:00
11:55 PM,26.1,21.9,84,29.82,10.0,North,10.4,-,N/A,,Clear,350,2013-02-20 07:55:00